Regional Weather Roundup
Issued by NWS

Home | Current Version | Previous Version | Graphics & Text | Print | Product List | Glossary On
Versions: 1 2 3 4 5 6 7 8 9 10 11 12 13 14 15 16 17 18 19 20 21 22 23 24 25 26 27 28 29 30 31 32 33 34 35 36 37 38 39 40 41 42 43 44 45 46 47 48 49 50
000
ASUS45 KBOI 040110
RWRID
WEATHER ROUNDUP FOR IDAHO
NATIONAL WEATHER SERVICE BOISE ID
600 PM MST TUE MAR 03 2015

NOTE: "FAIR" INDICATES FEW OR NO CLOUDS BELOW 12000 FEET
WITH NO SIGNIFICANT WEATHER AND/OR OBSTRUCTIONS TO VISIBILITY

IDZ012-014-040200-
SOUTHWEST IDAHO


CITY           SKY/WX    TMP DP  RH WIND       PRES   REMARKS
BOISE          CLEAR     42  12  29 NW15G25   30.01S
CALDWELL       CLEAR     43  12  28 NW12      30.06S
MOUNTAIN HOME  CLEAR     40  12  31 NW23      30.00R WCI  30
$$

IDZ016-017-040200-
SOUTHCENTRAL IDAHO


CITY           SKY/WX    TMP DP  RH WIND       PRES   REMARKS
BURLEY         LGT RAIN  37  14  38 W17G28    29.92R WCI  27
JEROME         CLEAR     37  13  37 SW23G29   29.94S WCI  26
TWIN FALLS     CLEAR     37  12  35 W23       29.96R WCI  26
$$

IDZ019>023-040200-
SOUTHEAST IDAHO


CITY           SKY/WX    TMP DP  RH WIND       PRES   REMARKS
IDAHO FALLS    PTCLDY    28   6  39 SW3       29.92S
POCATELLO      CLEAR     27  11  51 W3        29.95S
REXBURG        CLEAR     25   4  40 S6        29.90S WCI  18
$$

IDZ006-010-011-018-031-032-040200-
CENTRAL IDAHO MOUNTAINS


CITY           SKY/WX    TMP DP  RH WIND       PRES   REMARKS
MCCALL         PTCLDY    28   5  37 N9        29.97R WCI  19
HAILEY         PTCLDY    30  21  69 SE14      29.87  WCI  20
STANLEY          N/A     27   1  32 NW8       29.86R WCI  19
SALMON         FAIR      34   1  25 W7        29.93R WCI  28
CHALLIS        CLEAR     33   2  26 NE12      29.86R WCI  24
$$

IDZ002-004-006-007-026-040200-
NORTHERN IDAHO


CITY           SKY/WX    TMP DP  RH WIND       PRES   REMARKS
LEWISTON       CLEAR     40  15  36 NW9       30.16R WCI  34
LOWELL           N/A     36  22  56 CALM      30.16S
COEUR D`ALENE  FAIR      36  10  35 W10       30.10R WCI  28
MULLAN PASS    PTCLDY    15   7  70 VRB6      29.92S WCI   6
$$



USA.gov is the U.S. government's official web portal to all federal, state and local government web resources and services.